Date String (YYYY-MM-DD hh:mm:ss) UTC,Instrument flags,Ambient pressure (hPa),Sample flow (lpm),Bypass flow (lpm),Sample temperature (°C),Ambient temperature (°C),ASC tube jacket temperature (°C),LED temperature (°C),Box temperature (°C),Sample RH (%),Span deviation,Mass concentration (μg/m³),Mass concentration (μg/m³),Mass concentration (μg/m³)
DateTimeUTC,F1_M11,P_M11,Q1_M11,Q2_M11,T1_M11,T2_M11,T3_M11,T4_M11,T5_M11,U1_M11,ZSPAN_M11,X0_M11,X2_M11,X1_M11
2022-12-09 20:00:00,,0820.6,5.02,0.00,24.7,23.1,00.0,33.6,26.5,06.3,0000.0,0004.60,0001.60,0001.10
2022-12-09 20:01:00,,0820.8,4.99,0.00,24.6,22.9,00.0,33.5,26.4,06.4,0000.0,0004.35,0001.55,0001.09
2022-12-09 20:02:00,,0820.8,4.98,0.00,24.6,22.9,00.0,33.5,26.5,06.3,0000.0,0004.48,0001.60,0001.13
2022-12-09 20:03:00,,0820.7,5.02,0.00,24.6,23.0,00.0,33.5,26.5,06.3,0000.0,0004.64,0001.66,0001.17
2022-12-09 20:04:00,,0820.7,5.00,0.00,24.6,23.1,00.0,33.5,26.5,06.5,0000.0,0004.86,0001.72,0001.20
2022-12-09 20:05:00,,0820.7,4.99,0.00,24.6,23.2,00.0,33.5,26.5,06.7,0000.0,0004.91,0001.75,0001.20
2022-12-09 20:06:00,,0820.9,5.00,0.00,24.6,23.2,00.0,33.5,26.5,06.5,0000.0,0004.57,0001.64,0001.14
2022-12-09 20:07:00,,0820.9,5.02,0.00,24.6,23.2,00.0,33.5,26.5,06.5,0000.0,0004.50,0001.57,0001.10
2022-12-09 20:08:00,,0820.9,4.98,0.00,24.6,23.1,00.0,33.5,26.5,06.0,0000.0,0004.68,0001.63,0001.10
2022-12-09 20:09:00,,0820.9,4.99,0.00,24.6,23.2,00.0,33.5,26.5,05.9,0000.0,0004.50,0001.66,0001.12
2022-12-09 20:10:00,,0820.9,5.01,0.00,24.6,23.2,00.0,33.5,26.5,05.9,0000.0,0004.55,0001.79,0001.20
2022-12-09 20:11:00,,0820.8,5.01,0.00,24.6,23.3,00.0,33.5,26.5,06.1,0000.0,0004.93,0001.87,0001.25
2022-12-09 20:12:00,,0820.9,4.98,0.00,24.6,23.3,00.0,33.5,26.6,06.1,0000.0,0005.01,0001.92,0001.28
2022-12-09 20:13:00,,0820.8,4.99,0.00,24.7,23.3,00.0,33.5,26.6,06.3,0000.0,0005.00,0001.93,0001.27
2022-12-09 20:14:00,,0820.9,5.02,0.00,24.7,23.3,00.0,33.5,26.6,06.7,0000.0,0004.97,0001.87,0001.24
2022-12-09 20:15:00,,0820.7,5.00,0.00,24.7,23.4,00.0,33.5,26.6,06.9,0000.0,0005.30,0001.84,0001.21
2022-12-09 20:16:00,,0820.6,4.98,0.00,24.7,23.4,00.0,33.5,26.6,07.0,0000.0,0005.38,0001.80,0001.20
2022-12-09 20:17:00,,0820.7,4.99,0.00,24.7,23.4,00.0,33.5,26.6,06.9,0000.0,0005.82,0001.82,0001.20
2022-12-09 20:18:00,,0820.7,5.03,0.00,24.7,23.4,00.0,33.5,26.5,07.0,0000.0,0005.76,0001.80,0001.20
2022-12-09 20:19:00,,0820.7,5.00,0.00,24.7,23.4,00.0,33.5,26.5,07.0,0000.0,0005.16,0001.63,0001.12
2022-12-09 20:20:00,,0820.7,4.98,0.00,24.7,23.4,00.0,33.5,26.6,07.0,0000.0,0004.84,0001.50,0001.04
2022-12-09 20:21:00,,0820.7,4.99,0.00,24.7,23.4,00.0,33.5,26.6,07.1,0000.0,0003.57,0001.33,0000.95
2022-12-09 20:22:00,,0820.6,5.02,0.00,24.7,23.4,00.0,33.5,26.6,07.1,0000.0,0003.12,0001.23,0000.90
2022-12-09 20:23:00,,0820.6,5.01,0.00,24.7,23.4,00.0,33.5,26.5,07.2,0000.0,0003.05,0001.20,0000.88
2022-12-09 20:24:00,,0820.6,4.99,0.00,24.7,23.4,00.0,33.5,26.6,07.0,0000.0,0003.20,0001.14,0000.86
2022-12-09 20:25:00,,0820.6,4.99,0.00,24.7,23.4,00.0,33.5,26.6,07.0,0000.0,0004.49,0001.12,0000.85
2022-12-09 20:26:00,,0820.7,4.99,0.00,24.7,23.4,00.0,33.5,26.5,07.0,0000.0,0003.95,0001.12,0000.85
2022-12-09 20:27:00,,0820.7,5.03,0.00,24.7,23.4,00.0,33.5,26.5,07.1,0000.0,0003.81,0001.11,0000.85
2022-12-09 20:28:00,,0820.6,5.01,0.00,24.7,23.4,00.0,33.5,26.4,07.3,0000.0,0003.33,0001.14,0000.85
2022-12-09 20:29:00,,0820.7,4.98,0.00,24.7,23.4,00.0,33.5,26.6,07.3,0000.0,0003.36,0001.16,0000.85
2022-12-09 20:30:00,,0820.7,4.99,0.00,24.7,23.4,00.0,33.5,26.6,07.1,0000.0,0003.38,0001.16,0000.85
2022-12-09 20:31:00,,0820.6,5.01,0.00,24.7,23.4,00.0,33.5,26.6,07.2,0000.0,0003.41,0001.17,0000.86
2022-12-09 20:32:00,,0820.6,5.01,0.00,24.7,23.4,00.0,33.6,26.6,07.2,0000.0,0003.43,0001.18,0000.86
2022-12-09 20:33:00,,0820.6,4.99,0.00,24.8,23.5,00.0,33.6,26.7,07.2,0000.0,0003.84,0001.16,0000.86
2022-12-09 20:34:00,,0820.6,4.99,0.00,24.8,23.5,00.0,33.6,26.6,07.2,0000.0,0004.44,0001.15,0000.86
2022-12-09 20:35:00,,0820.6,5.00,0.00,24.8,23.5,00.0,33.6,26.6,07.3,0000.0,0004.29,0001.15,0000.85
2022-12-09 20:36:00,,0820.6,5.03,0.00,24.8,23.5,00.0,33.6,26.6,07.3,0000.0,0002.95,0001.19,0000.86
2022-12-09 20:37:00,,0820.6,5.00,0.00,24.8,23.5,00.0,33.6,26.6,07.2,0000.0,0003.01,0001.21,0000.87
2022-12-09 20:38:00,,0820.6,4.99,0.00,24.8,23.5,00.0,33.6,26.6,07.2,0000.0,0003.11,0001.26,0000.88
2022-12-09 20:39:00,,0820.6,4.98,0.00,24.8,23.5,00.0,33.6,26.6,07.3,0000.0,0003.03,0001.23,0000.90
2022-12-09 20:40:00,,0820.6,5.01,0.00,24.8,23.5,00.0,33.6,26.7,07.4,0000.0,0002.91,0001.19,0000.91
2022-12-09 20:41:00,,0820.6,5.03,0.00,24.8,23.5,00.0,33.6,26.6,07.3,0000.0,0003.00,0001.22,0000.92
2022-12-09 20:42:00,,0820.5,4.99,0.00,24.8,23.5,00.0,33.6,26.6,07.3,0000.0,0003.04,0001.23,0000.92
2022-12-09 20:43:00,,0820.6,4.99,0.00,24.8,23.5,00.0,33.6,26.6,07.3,0000.0,0003.15,0001.30,0000.94
2022-12-09 20:44:00,,0820.6,5.00,0.00,24.8,23.5,00.0,33.6,26.6,07.4,0000.0,0002.86,0001.33,0000.95
2022-12-09 20:45:00,,0820.6,5.02,0.00,24.8,23.4,00.0,33.6,26.7,07.3,0000.0,0002.23,0001.34,0000.95
2022-12-09 20:46:00,,0820.5,5.01,0.00,24.8,23.4,00.0,33.6,26.7,07.4,0000.0,0003.10,0001.35,0000.95
2022-12-09 20:47:00,,0820.4,4.98,0.00,24.8,23.4,00.0,33.6,26.7,07.4,0000.0,0003.21,0001.35,0000.95
2022-12-09 20:48:00,,0820.3,4.99,0.00,24.8,23.4,00.0,33.6,26.7,07.5,0000.0,0003.17,0001.33,0000.95
2022-12-09 20:49:00,,0820.5,5.01,0.00,24.8,23.4,00.0,33.6,26.7,07.6,0000.0,0003.20,0001.31,0000.94
2022-12-09 20:50:00,,0820.3,5.01,0.00,24.8,23.4,00.0,33.6,26.7,07.5,0000.0,0003.17,0001.30,0000.93
2022-12-09 20:51:00,,0820.2,4.99,0.00,24.8,23.4,00.0,33.6,26.7,07.5,0000.0,0003.14,0001.28,0000.93
2022-12-09 20:52:00,,0820.3,4.99,0.00,24.8,23.4,00.0,33.6,26.7,07.6,0000.0,0003.00,0001.24,0000.92
2022-12-09 20:53:00,,0820.3,4.99,0.00,24.8,23.4,00.0,33.6,26.7,07.6,0000.0,0002.91,0001.22,0000.92
2022-12-09 20:54:00,,0820.2,5.02,0.00,24.8,23.4,00.0,33.6,26.6,07.6,0000.0,0002.86,0001.17,0000.91
2022-12-09 20:55:00,,0820.3,5.01,0.00,24.8,23.4,00.0,33.6,26.6,07.6,0000.0,0002.77,0001.14,0000.91
2022-12-09 20:56:00,,0820.2,4.98,0.00,24.8,23.4,00.0,33.6,26.6,07.6,0000.0,0002.76,0001.14,0000.91
2022-12-09 20:57:00,,0820.2,4.99,0.00,24.8,23.4,00.0,33.6,26.6,07.6,0000.0,0001.96,0001.11,0000.91
2022-12-09 20:58:00,,0820.2,5.01,0.00,24.8,23.4,00.0,33.6,26.6,07.7,0000.0,0001.65,0001.07,0000.91
2022-12-09 20:59:00,,0820.2,5.03,0.00,24.8,23.3,00.0,33.6,26.6,07.7,0000.0,0001.70,0001.08,0000.91
